Weather in Pamukkale

Turkey     37°54′59″N   29°06′45″E
temp.,
°C
wind,
m/s
gust,
m/s
humid.,
%
clouds,
%
prec.,
mm/h
press.,
hPa
HPBL,
m
6 may, thu
thu600:00+18nw1147100 0.0 101111
03:00+16w1250100 0.0 101111
06:00+16se1149100 0.0 101011
09:00+19nnw2346100 0.1 101266
12:00+22nnw223610 0.0 1012823
15:00+26nnw66317 0.0 10122216
18:00+25nnw66355 0.0 10121752
21:00+19n224642 0.0 101413
7 may, fri
fri700:00+17n22554 0.0 101517
03:00+16nne22589 0.0 101515
06:00+14nne12634 0.0 101513
09:00+21n01445 0.0 1016564
12:00+25ssw123083 0.0 10141080
15:00+29sw1318100 0.0 10121586
18:00+29w231595 0.0 1011970
21:00+22wnw232682 0.0 101214
8 may, sat
sat800:00+20w123228 0.0 101311
03:00+21wsw123399 0.0 101224
06:00+19nw3335100 0.0 101124
09:00+24ese2329100 0.0 1012217
12:00+30wnw132081 0.0 1010739
15:00+33sse61316100 0.0 10062631
18:00+30w691967 0.0 1006799
21:00+23wnw34270 0.0 100831
9 may, sun
sun900:00+19n45570 0.0 101169
03:00+15n45800 0.0 1013122
06:00+14n45860 0.0 1015114
09:00+19n365623 0.0 10161139
12:00+24n55392 0.0 10151727
15:00+27nne65300 0.0 10132116
18:00+26nne88265 0.0 10131572
21:00+18n56351 0.0 1016117
10 may, mon
mon1000:00+15n44420 0.0 101778
03:00+13n33460 0.0 101746
06:00+11n33485 0.0 101747
09:00+17nne22355 0.0 1017616
12:00+23n13230 0.0 10151193
15:00+27nw13170 0.0 10121679
18:00+28nne13160 0.0 10101829
21:00+20n45260 0.0 101251